2024/01/31 00:00:00,28.1, 2.9
2024/01/31 00:10:00,28.1, 2.5
2024/01/31 00:20:00,28.1, 3.1
2024/01/31 00:30:00,28.1, 2.8
2024/01/31 00:40:00,28.1, 3.6
2024/01/31 00:50:00,28.1, 3.4
2024/01/31 01:00:00,28.1, 3.8
2024/01/31 01:10:00,28.1, 3.7
2024/01/31 01:20:00,28.1, 3.8
2024/01/31 01:30:00,28.1, 3.7
2024/01/31 01:40:00,28.1, 3.4
2024/01/31 01:50:00,28.1, 3.1
2024/01/31 02:00:00,28.1, 3.7
2024/01/31 02:10:00,28.1, 3.6
2024/01/31 02:20:00,28.0, 3.8
2024/01/31 02:30:00,28.1, 4.1
2024/01/31 02:40:00,28.1, 4.0
2024/01/31 02:50:00,28.1, 4.3
2024/01/31 03:00:00,28.0, 4.6
2024/01/31 03:10:00,27.9, 4.4
2024/01/31 03:20:00,27.9, 4.3
2024/01/31 03:30:00,27.8, 3.9
2024/01/31 03:40:00,27.7, 4.5
2024/01/31 03:50:00,27.7, 4.7
2024/01/31 04:00:00,27.7, 4.3
2024/01/31 04:10:00,27.7, 4.8
2024/01/31 04:20:00,27.9, 4.5
2024/01/31 04:30:00,27.8, 4.6
2024/01/31 04:40:00,27.9, 4.4
2024/01/31 04:50:00,27.9, 4.7
2024/01/31 05:00:00,27.8, 4.3
2024/01/31 05:10:00,27.8, 4.7
2024/01/31 05:20:00,27.7, 4.4
2024/01/31 05:30:00,27.8, 4.4
2024/01/31 05:40:00,27.6, 4.6
2024/01/31 05:50:00,27.7, 5.0
2024/01/31 06:00:00,27.9, 5.0
2024/01/31 06:10:00,27.6, 4.9
2024/01/31 06:20:00,27.6, 5.2
2024/01/31 06:30:00,27.4, 4.6
2024/01/31 06:40:00,27.3, 4.5
2024/01/31 06:50:00,27.2, 4.7
2024/01/31 07:00:00,27.0, 4.5
2024/01/31 07:10:00,26.9, 4.7
2024/01/31 07:20:00,26.8, 4.5
2024/01/31 07:30:00,26.7, 4.4
2024/01/31 07:40:00,26.7, 4.2
2024/01/31 07:50:00,26.5, 4.3
2024/01/31 08:00:00,26.5, 4.8
2024/01/31 08:10:00,26.6, 4.4
2024/01/31 08:20:00,26.7, 5.3
2024/01/31 08:30:00,26.7, 4.7
2024/01/31 08:40:00,26.7, 5.5
2024/01/31 08:50:00,26.8, 5.1
2024/01/31 09:00:00,26.4, 6.0
2024/01/31 09:10:00,26.6, 6.6
2024/01/31 09:20:00,26.7, 5.9
2024/01/31 09:30:00,26.5, 5.7
2024/01/31 09:40:00,26.4, 5.8
2024/01/31 09:50:00,26.3, 5.4
2024/01/31 10:00:00,26.5, 5.7
2024/01/31 10:10:00,26.4, 6.3
2024/01/31 10:20:00,26.6, 6.6
2024/01/31 10:30:00,26.3, 6.5
2024/01/31 10:40:00,26.1, 5.9
2024/01/31 10:50:00,26.0, 6.4
2024/01/31 11:00:00,26.2, 6.5
2024/01/31 11:10:00,26.0, 6.4
2024/01/31 11:20:00,26.0, 6.4
2024/01/31 11:30:00,26.4, 7.0
2024/01/31 11:40:00,26.2, 6.4
2024/01/31 11:50:00,25.9, 5.9
2024/01/31 12:00:00,25.7, 6.2
2024/01/31 12:10:00,25.5, 6.2
2024/01/31 12:20:00,25.6, 5.8
2024/01/31 12:30:00,25.2, 6.0
2024/01/31 12:40:00,25.5, 6.4
2024/01/31 12:50:00,26.0, 7.7
2024/01/31 13:00:00,25.5, 6.8
2024/01/31 13:10:00,25.0, 6.4
2024/01/31 13:20:00,24.5, 6.5
2024/01/31 13:30:00,24.8, 6.1
2024/01/31 13:40:00,24.7, 6.4
2024/01/31 13:50:00,24.5, 6.1
2024/01/31 14:00:00,24.3, 6.9
2024/01/31 14:10:00,24.2, 6.8
2024/01/31 14:20:00,24.0, 6.3
2024/01/31 14:30:00,23.8, 6.1
2024/01/31 14:40:00,23.8, 7.2
2024/01/31 14:50:00,23.8, 7.5
2024/01/31 15:00:00,23.4, 6.9
2024/01/31 15:10:00,23.3, 6.5
2024/01/31 15:20:00,23.2, 6.7
2024/01/31 15:30:00,23.1, 6.3
2024/01/31 15:40:00,23.2, 6.5
2024/01/31 15:50:00,22.8, 6.0
2024/01/31 16:00:00,22.3, 6.4
2024/01/31 16:10:00,---, 6.3
2024/01/31 16:20:00, 0.0, 6.1
2024/01/31 16:30:00,14.8, 6.8
2024/01/31 16:40:00,15.5, 6.0
2024/01/31 16:50:00,15.7, 6.0
2024/01/31 17:00:00,14.4, 5.5
2024/01/31 17:10:00,14.8, 6.0
2024/01/31 17:20:00,14.2, 5.6
2024/01/31 17:30:00,14.1, 5.7
2024/01/31 17:40:00,14.3, 5.7
2024/01/31 17:50:00,14.3, 5.7
2024/01/31 18:00:00,14.4, 5.7
2024/01/31 18:10:00,14.3, 5.7
2024/01/31 18:20:00,14.2, 5.9
2024/01/31 18:30:00,14.4, 5.5
2024/01/31 18:40:00,14.2, 5.4
2024/01/31 18:50:00,13.9, 5.9
2024/01/31 19:00:00,13.6, 5.1
2024/01/31 19:10:00,13.6, 5.3
2024/01/31 19:20:00,13.4, 5.6
2024/01/31 19:30:00,13.5, 5.8
2024/01/31 19:40:00,13.6, 5.0
2024/01/31 19:50:00,13.3, 5.1
2024/01/31 20:00:00,13.2, 4.4
2024/01/31 20:10:00,13.4, 4.4
2024/01/31 20:20:00,13.8, 4.6
2024/01/31 20:30:00,13.2, 4.3
2024/01/31 20:40:00,13.1, 4.4
2024/01/31 20:50:00,13.2, 4.6
2024/01/31 21:00:00,13.1, 4.4
2024/01/31 21:10:00,12.9, 4.5
2024/01/31 21:20:00,---, 4.0
2024/01/31 21:30:00,12.9, 4.2
2024/01/31 21:40:00,12.9, 3.9
2024/01/31 21:50:00,12.9, 4.1
2024/01/31 22:00:00,13.1, 3.9
2024/01/31 22:10:00,12.7, 4.3
2024/01/31 22:20:00, 0.0, 4.1
2024/01/31 22:30:00, 0.0, 3.9
2024/01/31 22:40:00, 0.0, 4.2
2024/01/31 22:50:00,---, 4.3
2024/01/31 23:00:00,12.7, 4.1
2024/01/31 23:10:00,12.6, 4.1
2024/01/31 23:20:00,12.5, 4.1
2024/01/31 23:30:00,12.5, 4.1
2024/01/31 23:40:00,12.5, 4.2
2024/01/31 23:50:00,12.6, 4.1
